Flag for U.S.A. Weather past 2 weeks in Warren, Michigan, U.S.A.

Now
62 °F

Partly cloudy.


Feels Like: 62 °F
Forecast: 59 / 82 °F
Wind: 3 mph from Southeast

Location: Detroit City Airport

Current Time: May 29, 2015 at 6:33:00 AM

Latest Report: May 29, 2015 at 5:53 AM


Visibility: 10 mi

Pressure: 30.16 "Hg

Humidity: 73%

Dew point: 53 °F

Location of WarrenLocation

Historic Weather in Warren — Graph

°F

Warren temperature yesterday

Maximum temperature yesterday: 76 °F (at 3:53 PM)
Minimum temperature yesterday: 56 °F (at 5:53 AM)
Average temperature yesterday: 68 °F

Past Weeks' High & Low Weather Summary

 TemperatureHumidityPressure
High83 °F (May 18, 2:53 PM)97% (May 17, 8:04 AM)30.50 "Hg (May 17, 8:04 AM)
Low39 °F (May 14, 4:53 AM)22% (May 22, 6:53 PM)29.84 "Hg (May 26, 6:53 PM)
Average64 °F61%30.11 "Hg
* Reported May 14 4:53 AM — May 29 4:53 AM, Warren, Weather by CustomWeather, © 2015

Note: Actual official high and low records may vary slightly from our data, if they occured in-between our weather recording intervals... More about our weather records

Advertising

Warren weather history for previous 24 hours

 ConditionsComfort  
Time TempWeatherWind HumidityBarometerVisibility
4:53 AM
Fri, May 29
61 °FPassing clouds.5 mph72%30.16 "Hg10 mi
3:53 AM61 °FPartly cloudy.3 mph70%30.17 "Hg10 mi
2:53 AM61 °FClear.5 mph67%30.18 "Hg10 mi
1:53 AM62 °FClear.8 mph62%30.18 "Hg10 mi
12:53 AM63 °FClear.6 mph58%30.19 "Hg10 mi
11:53 PM
Thu, May 28
64 °FClear.5 mph58%30.20 "Hg10 mi
10:53 PM65 °FClear.6 mph61%30.21 "Hg10 mi
9:53 PM66 °FSunny.7 mph61%30.21 "Hg10 mi
8:53 PM69 °FSunny.6 mph51%30.20 "Hg10 mi
7:53 PM72 °FSunny.6 mph46%30.21 "Hg10 mi
6:53 PM75 °FSunny.7 mph45%30.20 "Hg10 mi
5:53 PM76 °FSunny.7 mph43%30.22 "Hg10 mi
4:53 PM76 °FSunny.9 mph45%30.22 "Hg10 mi
3:53 PM76 °FSunny.8 mph52%30.23 "Hg10 mi
2:53 PM75 °FSunny.10 mph60%30.24 "Hg10 mi
1:53 PM75 °FPassing clouds.7 mph60%30.26 "Hg10 mi
12:53 PM74 °FSunny.7 mph57%30.26 "Hg10 mi
11:53 AM73 °FSunny.8 mph53%30.26 "Hg10 mi
10:53 AM71 °FSunny.7 mph57%30.24 "Hg10 mi
9:53 AM71 °FSunny.No wind55%30.24 "Hg10 mi
8:53 AM68 °FSunny.No wind65%30.22 "Hg10 mi
7:53 AM63 °FSunny.No wind84%30.22 "Hg10 mi
6:53 AM58 °FClear.No wind90%30.22 "Hg10 mi
Weather by CustomWeather, © 2015

See weather overviewHow to use our weather pages